Houston, TX

3:16 PM CDT on September 27, 2016 (GMT -0500)
Ellington

Weather History for KEFD - April, 2013

Change the Weather History Date:

Tuesday, April 23, 2013

  Actual Average Record
Temperature  
Mean Temperature 73 °F -  
Max Temperature 84 °F 77 °F 87 °F (1999)
Min Temperature 62 °F 61 °F 51 °F (1998)
Cooling Degree Days 8    
Growing Degree Days 23 (Base 50)    
Moisture  
Dew Point 64 °F    
Average Humidity 72    
Maximum Humidity 88    
Minimum Humidity 51    
Precipitation  
Precipitation 0.00 in - - ()
Sea Level Pressure  
Sea Level Pressure 29.96 in    
Wind  
Wind Speed 4 mph (SSE)    
Max Wind Speed 15 mph    
Max Gust Speed 21 mph    
Visibility 10 miles    
Events      
Averages and records for this station are not official NWS values.
T = Trace of Precipitation, MM = Missing Value Source: NWS Daily Summary

Daily Weather History Graph

Daily Weather History Graph

Search for Another Location

Airport or City:

Trip Planner

Search our weather history database for the weather conditions in past years. The results will help you decide how hot, cold, wet, or windy it might be!

Date:

Astronomy

Apr. 23, 2013 Rise Set
Actual Time 6:45 AM CDT 7:52 PM CDT
Civil Twilight 6:20 AM CDT 8:17 PM CDT
Nautical Twilight 5:51 AM CDT 8:46 PM CDT
Astronomical Twilight 5:21 AM CDT 9:17 PM CDT
Moon 5:56 PM CDT (4/23) 5:04 AM CDT (4/23)
Length of Visible Light 13h 56m
Length of Day
13h 07m
Waxing Gibbous, 94% of the Moon is Illuminated
Apr 23
Waxing Gibbous
Apr 25
Full
May 2
Last Quarter
May 9
New
May 17
First Quarter

Hourly Weather History & Observations

Time (CDT) Temp. Heat Index Dew Point Humidity Pressure Visibility Wind Dir Wind Speed Gust Speed Precip Events Conditions
12:50 AM 64.4 °F - 57.2 °F 77% 29.98 in 10.0 mi Calm Calm - N/A   Clear
1:50 AM 62.6 °F - 57.2 °F 82% 29.97 in 10.0 mi Calm Calm - N/A   Clear
2:50 AM 62.6 °F - 57.2 °F 82% 29.95 in 10.0 mi Calm Calm - N/A   Clear
3:50 AM 62.6 °F - 59.0 °F 88% 29.94 in 10.0 mi Calm Calm - N/A   Clear
4:50 AM 62.6 °F - 59.0 °F 88% 29.94 in 10.0 mi Calm Calm - N/A   Scattered Clouds
5:50 AM 62.6 °F - 59.0 °F 88% 29.95 in 10.0 mi Calm Calm - N/A   Partly Cloudy
6:50 AM 62.6 °F - 59.0 °F 88% 29.96 in 10.0 mi Calm Calm - N/A   Partly Cloudy
8:50 AM 75.2 °F - 62.6 °F 65% 29.99 in 10.0 mi SSE 9.2 mph - N/A   Mostly Cloudy
9:50 AM 75.2 °F - 66.2 °F 73% 29.99 in 10.0 mi SSE 11.5 mph - N/A   Mostly Cloudy
10:50 AM 77.0 °F - 66.2 °F 69% 30.00 in 10.0 mi SSE 13.8 mph 20.7 mph N/A   Mostly Cloudy
11:50 AM 78.8 °F - 66.2 °F 65% 29.99 in 10.0 mi South 15.0 mph - N/A   Mostly Cloudy
12:50 PM 78.8 °F - 66.2 °F 65% 29.98 in 10.0 mi SSE 13.8 mph - N/A   Mostly Cloudy
1:50 PM 80.6 °F 82.7 °F 66.2 °F 61% 29.95 in 10.0 mi South 11.5 mph - N/A   Overcast
2:50 PM 82.4 °F 84.6 °F 66.2 °F 58% 29.94 in 10.0 mi SSE 9.2 mph - N/A   Overcast
3:50 PM 84.2 °F 85.6 °F 64.4 °F 51% 29.92 in 10.0 mi SSE 10.4 mph - N/A   Mostly Cloudy
4:50 PM 84.2 °F 85.6 °F 64.4 °F 51% 29.92 in 10.0 mi South 12.7 mph - N/A   Mostly Cloudy
5:50 PM 82.4 °F 84.6 °F 66.2 °F 58% 29.90 in 10.0 mi South 11.5 mph - N/A   Mostly Cloudy
6:50 PM 78.8 °F - 62.6 °F 57% 29.92 in 10.0 mi SSE 8.1 mph - N/A   Mostly Cloudy
7:50 PM 77.0 °F - 66.2 °F 69% 29.93 in 10.0 mi SSE 5.8 mph - N/A   Mostly Cloudy
8:50 PM 75.2 °F - 66.2 °F 73% 29.95 in 10.0 mi SE 4.6 mph - N/A   Mostly Cloudy
9:50 PM 73.4 °F - 68.0 °F 83% 29.97 in 10.0 mi SE 3.5 mph - N/A   Mostly Cloudy
10:50 PM 73.4 °F - 69.8 °F 88% 29.98 in 10.0 mi ESE 5.8 mph - N/A   Mostly Cloudy
11:50 PM 73.4 °F - 69.8 °F 88% 29.99 in 10.0 mi Calm Calm - N/A   Overcast